Wind_Speed
5 4 3 2 2 4 6 6 6 6 6 6 6 6 6 5 5 5 5 6 6 6 6 6 6 7 7 8 9 9 9 9 9 6 3 4 5 5 5 4 3 2 2 2 4 3 3 5 7 10 6 2 4 2 2 2 3 5 4 4 3 4 4 5 7 7 4 4 6 4 3 7 4 2 1 2 7 4 3 4 3 5 4 2 1 3 6 13
6 5 4 3 3 4 5 6 7 6 6 5 5 6 6 6 6 5 5 5 5 5 5 5 6 7 7 8 9 9 10 9 6 4 3 5 6 7 7 5 3 1 1 3 5 5 3 4 7 8 6 3 3 2 2 2 3 4 3 4 3 6 4 5 7 7 3 3 5 3 3 5 5 4 2 1 2 2 2 3 4 5 3 1 3 5 9 14
6 5 4 4 3 3 4 5 5 5 5 5 5 5 5 5 5 5 4 4 4 4 4 5 5 6 7 8 8 9 9 6 3 3 2 3 4 5 6 5 3 1 2 4 5 5 2 2 4 4 4 3 2 3 3 3 2 2 4 3 4 6 3 4 6 7 5 4 6 3 2 3 4 4 2 3 3 2 3 4 1 3 5 4 1 5 10 13
6 6 5 4 4 4 3 3 3 3 4 4 5 4 4 4 4 4 3 3 3 4 4 4 5 6 7 8 8 8 7 4 1 2 1 2 5 6 6 5 3 3 3 4 3 4 2 1 2 4 4 2 4 4 3 3 1 2 4 3 5 4 1 4 6 6 4 4 7 4 4 2 3 3 2 5 5 4 7 7 7 8 9 8 5 5 10 12
6 6 5 4 4 3 3 3 3 3 3 4 4 4 4 3 4 3 3 3 4 4 4 4 5 5 6 7 7 8 6 4 1 2 3 5 7 7 6 5 3 3 4 5 3 3 3 3 5 5 4 2 4 4 1 3 2 3 1 4 5 4 2 4 5 4 3 4 5 5 4 3 2 1 4 8 6 6 6 7 8 8 10 11 8 8 9 11
6 5 5 3 3 3 2 2 3 3 3 4 4 4 3 3 3 3 3 3 4 4 4 4 5 5 6 6 6 5 3 1 3 3 5 6 8 7 6 4 3 3 3 4 4 3 3 4 6 4 3 3 3 2 1 4 3 3 1 1 4 4 2 2 3 4 5 6 5 5 3 2 2 2 3 8 8 7 4 5 6 6 11 14 11 10 8 8
6 5 5 4 3 3 2 2 3 3 3 4 4 3 3 3 3 3 3 3 3 3 3 4 5 5 5 5 5 4 4 2 4 7 8 7 7 6 5 3 3 2 3 4 5 3 4 7 5 3 4 3 0 2 1 5 4 5 1 1 2 4 3 2 3 4 5 6 6 4 2 3 6 4 1 5 8 4 3 1 6 10 14 15 10 8 8 9
6 5 5 4 4 3 3 3 3 3 2 2 3 3 3 3 3 3 3 3 3 3 3 3 4 4 5 3 2 4 2 3 5 10 10 8 7 6 4 1 2 2 3 6 6 3 3 5 3 3 3 1 3 2 2 3 5 5 2 2 1 2 3 1 2 1 3 4 3 5 3 5 6 3 0 6 7 1 2 5 9 11 12 10 8 7 8 9
6 6 5 5 5 4 3 3 3 2 1 2 2 3 3 3 3 3 3 3 3 3 3 3 4 4 4 3 5 2 3 3 7 12 11 9 8 5 3 0 2 1 3 6 5 4 3 1 2 3 3 2 2 2 2 2 1 1 3 2 0 2 4 1 0 2 2 1 3 4 4 5 3 1 3 7 6 4 5 6 6 8 8 6 6 7 8 9
6 6 5 5 5 3 3 2 1 0 1 2 2 3 3 3 3 3 3 2 3 3 3 3 3 3 2 3 6 1 4 2 9 12 11 9 8 5 3 0 1 2 2 4 5 6 4 3 3 3 5 2 2 1 2 1 1 2 3 1 1 1 5 0 3 4 1 2 3 5 6 4 3 1 4 5 5 5 7 6 4 7 7 6 5 6 9 9
7 6 6 6 4 1 1 2 1 0 1 2 2 3 3 3 3 4 3 3 3 3 2 2 2 2 1 3 5 3 3 2 10 12 11 10 7 6 4 2 2 1 1 4 5 6 4 4 4 4 1 1 1 2 3 1 2 2 3 1 3 5 5 1 3 5 1 2 5 7 5 3 3 2 6 5 5 6 8 7 5 6 6 5 5 5 7 9
7 7 6 7 4 2 1 3 2 1 2 4 4 4 3 3 3 4 4 3 3 2 2 2 1 1 1 3 3 6 4 3 9 11 11 10 8 6 4 3 2 1 1 2 4 4 5 2 4 4 1 1 2 2 0 1 2 1 3 1 6 8 6 4 3 3 4 3 5 7 3 5 4 7 7 3 6 6 7 7 5 6 5 5 6 5 6 8
8 8 7 7 7 5 3 4 4 3 3 4 6 6 4 4 3 3 4 3 3 2 2 1 1 0 2 0 4 7 7 5 9 11 10 9 8 6 4 3 1 1 0 3 4 4 5 1 4 5 1 4 1 1 2 3 3 0 3 2 4 7 6 5 1 2 5 3 4 5 3 6 8 10 5 2 7 8 6 7 6 6 5 5 5 5 5 7
9 8 8 7 8 7 6 5 5 5 5 5 6 6 5 4 3 3 4 3 3 3 2 1 1 1 2 3 5 6 8 8 9 10 10 9 8 6 4 2 2 2 2 4 5 5 5 3 5 5 2 3 1 1 4 6 3 1 1 2 2 2 5 7 1 4 5 2 2 5 3 7 9 9 5 5 8 9 8 8 7 6 5 5 5 5 5 7
10 8 7 7 8 8 7 6 7 6 6 7 7 7 6 5 3 3 4 4 4 3 2 2 2 3 2 4 5 4 8 8 9 10 9 9 8 5 4 4 3 3 3 3 4 5 4 4 5 4 1 2 3 4 4 4 3 3 1 3 3 2 5 9 2 6 5 0 1 5 3 8 9 8 4 5 7 8 9 8 7 7 7 6 6 6 5 6
9 8 8 8 8 8 7 8 8 5 5 7 6 6 6 4 1 3 4 5 5 4 3 3 3 4 2 3 2 3 6 7 8 11 10 10 8 5 5 5 3 3 3 3 4 4 5 5 4 2 1 2 5 5 3 3 4 4 0 3 3 2 3 7 3 3 3 2 0 3 3 5 5 5 3 4 6 7 7 7 8 8 8 7 6 6 5 5
10 9 8 7 8 7 7 8 7 5 4 4 4 5 3 1 2 4 5 8 8 6 5 3 4 4 0 2 2 4 5 8 9 11 12 10 8 6 7 5 3 4 5 4 4 3 5 5 1 1 2 3 3 5 3 2 4 3 1 2 4 3 2 3 4 4 1 3 3 4 4 7 7 3 1 4 6 6 8 9 9 8 8 7 6 6 6 6
11 9 8 8 7 7 7 8 7 4 2 2 4 2 3 4 4 5 8 11 10 8 5 2 3 2 4 3 3 3 4 8 9 11 12 10 8 7 6 4 4 6 5 4 3 2 3 4 2 1 3 3 1 5 3 5 4 3 3 2 3 3 3 4 5 2 3 2 4 5 6 12 13 7 3 6 6 8 11 10 8 8 8 7 7 7 7 8
12 10 9 8 7 7 7 8 7 4 1 2 2 3 6 5 5 5 7 8 6 4 1 3 4 3 4 4 2 3 6 8 9 11 11 9 9 7 6 5 6 6 4 1 1 1 2 3 4 2 1 3 5 7 8 8 6 6 6 5 4 4 4 5 6 5 4 3 5 7 8 12 14 12 8 7 7 8 10 8 7 7 8 7 8 8 8 9
14 12 10 8 7 7 7 9 8 6 3 2 2 4 4 3 3 1 2 3 4 3 2 5 7 3 0 1 3 8 8 7 5 7 10 11 12 9 5 4 6 5 3 3 2 1 3 2 2 4 7 9 10 10 7 5 6 5 5 4 4 4 5 5 5 6 2 4 6 9 10 12 12 12 10 5 6 8 10 10 10 9 8 8 10 11 10 9
16 14 11 9 8 6 7 9 8 6 4 4 4 3 2 3 3 2 3 4 10 9 4 3 4 3 1 1 7 10 7 3 2 4 11 11 12 9 1 2 5 1 1 4 2 2 3 4 7 10 10 9 9 9 5 5 4 3 4 3 3 3 5 7 4 5 1 4 6 6 8 12 12 12 10 4 6 10 13 13 14 13 11 10 12 13 10 6
18 16 13 11 9 7 7 7 8 6 7 7 5 3 2 1 2 0 3 1 10 14 11 4 2 5 4 2 9 8 3 2 0 3 10 10 7 6 1 4 5 4 1 3 3 1 1 5 11 10 4 4 4 6 6 4 3 2 3 2 3 3 4 7 5 4 1 4 5 6 7 10 11 12 11 7 10 12 12 14 15 14 13 12 13 12 9 8
20 18 15 12 10 9 7 7 9 8 9 9 7 5 2 2 4 3 2 1 5 7 8 7 6 6 4 2 8 9 2 4 5 5 11 10 4 4 5 5 5 4 3 5 5 4 4 6 11 7 6 6 3 3 5 2 1 3 3 3 4 3 2 4 5 4 1 2 3 5 7 8 8 9 10 13 13 9 10 13 14 12 13 14 12 11 11 12
21 20 17 13 12 10 7 8 10 10 13 12 13 12 5 5 4 5 1 0 4 4 5 10 9 7 8 5 10 11 3 4 5 6 14 12 5 3 5 6 5 5 4 9 9 7 7 5 3 6 8 9 5 4 6 4 3 4 5 6 5 5 6 6 4 5 3 3 3 4 8 8 7 9 12 10 6 6 10 12 12 12 11 10 9 10 12 13
23 22 19 16 14 11 7 9 11 13 14 12 16 17 9 4 4 6 2 1 3 5 3 6 5 7 13 9 12 11 2 4 4 8 17 16 9 4 3 3 4 5 8 8 7 6 8 5 4 6 6 7 7 4 6 7 4 5 5 9 10 8 8 5 3 5 4 5 4 4 5 7 4 7 10 6 2 7 10 10 13 14 9 7 9 10 11 10
25 23 21 19 16 13 10 7 11 13 12 11 15 15 12 7 1 3 2 3 4 4 1 4 4 9 14 10 10 7 2 5 4 9 18 17 11 5 3 2 2 5 7 5 3 3 5 4 5 7 6 7 7 5 6 8 5 4 5 9 11 8 5 5 1 1 1 4 3 3 0 7 6 5 8 6 6 10 10 9 13 12 8 9 10 9 9 10
27 25 24 22 19 18 12 6 10 13 8 9 14 14 14 11 5 2 2 4 5 4 4 2 2 7 11 10 13 9 2 5 2 7 13 13 8 2 3 5 2 3 4 4 2 3 4 4 4 6 6 6 6 5 6 8 7 4 4 5 8 7 6 6 5 3 3 3 4 2 3 5 10 5 6 7 7 11 12 11 11 10 9 10 9 9 9 11
30 28 26 24 23 23 15 8 12 15 9 3 6 16 16 11 8 2 4 0 4 3 5 2 1 5 4 8 14 8 2 3 5 4 4 7 7 1 2 8 6 6 5 6 5 3 4 7 7 8 5 4 6 5 7 10 6 5 3 5 6 6 5 4 5 3 1 2 4 1 4 3 10 4 1 2 6 10 13 13 12 11 9 9 9 8 9 9
32 30 29 27 25 25 18 12 12 14 16 4 4 18 17 10 7 3 4 3 3 1 2 2 3 2 3 6 8 3 2 2 2 3 2 4 4 2 3 7 5 7 5 4 6 3 1 6 8 8 6 6 5 2 7 11 5 4 5 7 6 5 4 5 4 3 3 3 5 6 6 3 8 3 3 1 3 9 11 10 11 9 6 7 9 9 8 8
34 32 31 28 27 28 22 17 14 12 16 8 5 17 17 7 4 4 2 4 1 0 0 2 3 2 7 10 3 1 2 2 1 2 3 1 1 4 1 3 6 5 2 3 4 3 2 1 2 4 4 5 4 3 2 6 6 5 6 6 7 5 5 4 2 4 2 5 6 9 11 7 6 3 4 3 4 7 8 7 8 7 5 6 7 8 8 8
35 35 34 32 32 32 22 17 21 15 12 12 8 15 13 2 2 5 5 2 1 1 2 1 1 4 11 14 6 2 3 1 1 5 3 1 2 3 1 2 4 3 1 5 4 4 4 1 1 2 2 4 6 5 3 2 4 5 5 4 4 4 4 4 4 4 1 6 4 6 9 9 8 6 3 5 6 5 7 6 8 8 7 6 6 7 8 8
37 38 38 37 35 34 24 16 26 21 11 12 11 8 6 2 2 6 4 1 1 4 5 3 3 6 10 9 7 7 5 2 3 6 6 4 5 6 6 6 5 3 3 6 3 3 3 4 3 2 1 4 6 4 4 4 2 4 5 6 3 2 3 2 3 0 3 6 3 1 3 5 9 7 6 11 12 10 8 8 8 9 8 7 6 7 7 7
38 39 40 41 37 38 30 19 23 24 15 15 12 3 1 4 6 9 8 4 2 2 4 4 4 8 12 8 5 5 3 2 5 5 4 5 6 8 7 6 5 3 2 5 4 2 3 5 2 0 2 3 8 7 3 1 4 6 6 6 5 2 1 3 3 2 4 5 3 0 2 3 6 4 8 15 15 10 7 8 9 8 8 7 6 7 7 8
36 40 41 43 42 40 35 24 24 28 22 17 11 4 6 7 7 10 13 9 2 2 2 4 6 9 10 7 5 7 4 3 7 6 3 6 5 7 6 6 6 2 3 4 3 5 5 5 4 7 4 6 11 9 6 6 5 5 4 5 5 5 4 4 4 4 4 4 4 2 2 3 2 3 7 10 9 8 6 6 6 6 7 6 4 6 7 8
31 41 42 41 41 39 36 29 27 32 26 14 7 7 10 9 7 10 13 8 2 2 3 3 7 8 7 3 2 6 5 3 6 6 4 6 6 8 7 8 11 7 4 4 2 3 4 6 6 3 1 9 11 5 5 7 3 3 2 4 3 5 5 3 3 5 3 2 3 2 4 4 4 6 8 7 9 8 7 6 6 7 5 3 4 6 7 8
26 38 38 36 37 39 37 30 31 35 24 10 8 9 10 10 9 8 7 6 5 4 6 3 4 5 7 3 2 6 2 2 5 5 3 4 4 7 8 8 11 12 9 7 3 2 2 5 5 2 2 4 6 3 4 4 3 2 2 4 4 4 5 2 2 1 3 3 4 3 5 5 3 8 8 6 10 10 9 9 9 8 3 3 5 6 7 8
21 29 28 28 33 37 37 32 36 36 18 7 10 10 9 12 11 8 6 5 6 9 8 4 3 5 7 4 4 7 3 2 5 5 3 3 3 7 9 4 6 15 13 6 2 3 4 3 4 1 2 3 1 3 3 3 3 5 4 6 2 2 2 2 2 2 2 4 5 3 6 6 2 6 5 3 5 10 10 9 9 8 4 5 6 6 6 7
19 18 17 28 36 37 38 37 37 29 10 5 11 11 9 12 14 11 7 4 6 9 9 7 6 7 8 7 6 7 7 4 6 6 4 4 5 8 11 5 5 15 15 6 1 3 4 2 5 1 3 3 3 4 2 5 2 4 4 4 4 2 1 2 2 3 2 4 5 2 4 5 6 6 4 3 6 9 10 8 8 9 7 6 6 6 6 6
15 8 8 27 41 40 42 42 32 17 6 6 10 10 10 14 17 12 5 3 6 9 10 10 8 6 7 9 7 8 10 8 9 8 5 5 6 6 13 10 6 12 14 9 5 3 3 3 4 2 0 1 2 2 4 2 2 3 2 2 2 2 3 4 3 2 3 2 4 3 4 4 7 7 7 11 11 9 10 9 8 9 7 6 6 6 7 8
10 3 4 19 38 44 47 40 21 9 9 10 9 9 12 14 16 12 9 8 7 6 9 12 11 8 7 9 8 8 9 8 10 9 6 7 6 5 9 11 6 7 11 12 8 2 2 3 3 2 2 1 2 4 8 10 6 3 4 4 3 1 2 1 1 2 4 3 2 4 6 6 4 4 8 11 10 9 9 8 8 8 5 6 7 7 8 8
5 5 3 13 35 46 40 22 10 9 10 10 11 12 13 12 9 9 13 14 8 3 4 8 10 9 7 9 8 7 7 7 8 7 5 7 8 6 7 11 10 8 8 8 8 5 3 3 3 2 1 4 5 4 6 9 8 6 7 8 9 7 4 2 3 2 3 3 4 3 8 9 4 4 7 8 8 7 7 6 8 8 5 6 7 8 9 8
3 6 3 17 41 44 24 7 7 10 8 10 14 13 8 6 6 7 11 14 10 5 1 3 8 9 7 8 8 7 8 7 8 8 6 9 12 9 8 11 13 14 12 8 10 8 4 3 3 3 4 6 6 4 2 4 3 3 3 5 6 7 7 6 6 4 3 2 2 3 5 9 3 5 6 6 6 5 4 6 7 8 4 5 7 7 8 8
4 5 1 21 49 42 14 7 10 8 7 11 15 12 5 3 6 8 9 12 11 9 7 3 4 8 7 6 7 8 8 7 9 12 8 9 11 8 8 12 13 14 11 6 6 4 3 3 3 2 2 3 4 4 3 1 2 1 1 3 6 9 9 6 4 4 4 5 4 3 6 7 2 1 3 3 5 4 4 6 7 8 6 4 6 7 7 7
3 4 1 18 45 36 9 7 11 9 9 10 12 13 8 5 5 8 10 14 12 9 10 8 4 5 6 4 6 9 11 7 8 13 11 7 7 4 8 15 14 13 10 6 7 7 5 5 5 2 1 3 3 3 2 1 1 3 4 5 8 11 8 2 1 3 3 9 10 6 10 8 2 4 3 3 6 6 7 6 6 7 6 4 5 5 6 7
1 3 2 9 25 21 7 7 10 9 11 13 12 14 13 8 7 10 10 12 11 9 9 10 7 5 3 3 5 7 12 12 10 10 9 7 4 1 4 13 15 14 10 7 9 10 7 6 7 7 7 8 8 7 6 4 3 2 5 8 10 12 11 7 3 3 7 9 10 10 12 5 1 5 5 5 6 7 7 6 5 6 5 4 5 6 6 7
2 3 2 3 7 8 6 6 6 6 9 13 11 11 16 13 9 11 11 9 11 12 9 6 6 7 4 6 7 8 11 15 10 5 7 9 4 1 2 8 12 11 5 3 7 7 3 4 11 15 15 16 14 8 7 10 8 8 10 13 14 15 14 10 6 8 8 4 7 15 16 8 6 6 6 7 8 7 7 5 5 6 5 5 5 6 6 7
3 4 4 4 2 4 6 5 6 5 6 9 7 6 15 18 11 9 10 9 10 12 11 6 5 8 10 10 12 11 11 12 9 5 8 9 4 2 1 3 7 6 1 2 6 6 3 5 13 17 19 20 14 7 11 15 15 17 16 16 17 16 15 13 14 14 8 5 11 17 11 11 17 12 10 10 8 7 7 7 7 6 5 5 4 5 6 6
3 2 4 5 4 4 6 7 8 8 8 10 6 3 9 17 15 10 8 10 11 10 9 8 9 14 17 17 15 11 10 10 10 11 10 6 3 0 2 0 3 3 3 2 4 4 3 7 11 14 17 18 9 6 12 15 14 16 18 19 19 18 18 20 23 20 11 9 19 14 10 16 23 15 12 12 11 11 10 7 5 3 3 4 5 5 7 7
2 1 2 4 4 5 8 11 10 10 11 10 6 4 7 13 17 13 8 7 10 11 10 11 17 21 21 19 14 11 12 11 11 13 10 6 5 4 3 2 3 3 5 4 4 3 3 6 9 11 14 17 10 6 10 13 11 12 16 19 19 20 23 25 25 23 17 17 22 13 8 18 20 12 11 11 9 10 5 2 3 4 5 5 6 7 8 8
2 1 2 3 3 3 5 7 8 8 9 8 5 6 8 11 16 15 11 10 10 11 14 17 21 21 20 19 15 14 15 15 15 15 10 8 7 6 6 5 4 5 5 5 4 3 5 5 5 6 8 14 11 7 8 11 11 12 12 14 17 21 23 24 22 19 16 18 22 14 11 18 14 7 7 5 4 4 3 4 6 6 6 6 7 8 8 9
5 2 0 1 3 4 4 4 6 7 7 6 6 6 6 10 15 13 11 12 13 11 13 20 24 18 14 16 17 18 20 20 20 15 12 13 12 9 8 7 8 10 9 8 5 5 6 4 2 5 7 12 12 10 9 7 6 8 10 15 21 20 18 18 17 16 15 18 20 14 14 19 11 5 4 4 6 6 7 8 7 6 7 8 9 10 10 11
5 2 1 1 2 4 5 4 6 8 7 6 9 9 8 9 11 10 7 7 11 13 12 16 21 16 11 15 20 22 22 19 14 8 7 10 8 4 3 2 4 9 10 9 7 6 8 7 4 6 8 11 10 11 9 6 3 7 13 21 23 17 14 15 15 17 19 18 15 14 18 20 8 5 5 6 6 7 8 8 7 7 7 8 9 11 11 10
Wind_Direction
200 203 202 192 210 213 208 201 197 203 207 211 211 213 216 214 213 213 220 224 228 240 248 260 276 287 292 298 304 313 321 320 315 295 260 250 239 212 206 240 271 299 331 344 5 6 16 25 3 4 22 69 14 338 13 21 65 55 78 93 121 174 193 179 179 194 176 196 209 220 174 137 180 257 152 46 36 58 36 18 348 352 16 52 118 122 138 150
200 201 200 194 205 221 220 208 201 204 207 210 205 208 211 210 213 215 218 226 234 245 256 267 279 287 294 301 307 322 329 329 325 293 266 262 247 228 227 232 236 270 348 4 16 27 48 350 337 11 37 52 349 343 28 6 71 82 109 98 184 199 201 189 179 189 185 183 184 198 161 153 187 176 129 198 309 13 77 340 350 360 348 51 94 112 137 149
198 201 202 200 202 208 216 211 205 205 204 205 203 205 209 210 213 216 220 230 240 249 263 272 281 293 299 303 318 333 335 345 344 313 310 278 233 209 203 197 187 113 40 21 14 17 40 303 323 30 42 51 350 359 36 14 54 133 109 88 228 212 222 222 187 196 218 174 153 178 152 161 217 163 137 192 192 231 206 215 205 250 233 207 196 114 135 147
199 203 207 206 203 202 203 202 203 205 209 208 203 204 208 209 207 213 220 229 244 252 260 272 285 297 302 309 330 336 344 23 344 289 50 112 136 147 158 158 142 93 42 18 12 6 14 342 48 58 58 48 336 14 46 354 35 112 104 153 214 172 171 224 199 207 217 162 149 149 118 154 232 163 154 150 146 260 245 214 195 205 200 187 202 143 135 143
204 211 211 202 201 205 200 200 201 195 216 219 207 204 200 205 210 211 216 230 243 247 257 275 288 298 308 318 336 337 4 53 261 224 127 134 132 136 136 128 110 82 35 22 22 35 47 65 67 50 53 48 344 25 22 307 70 68 60 192 192 138 139 217 199 192 154 122 112 122 146 185 185 144 157 154 175 234 235 226 213 200 181 171 173 153 138 138
210 215 212 204 204 204 202 218 219 208 216 221 216 209 196 201 209 204 213 231 239 248 263 277 291 301 312 326 340 351 62 92 262 181 155 150 138 133 121 105 91 59 26 35 30 50 59 39 57 51 45 53 359 57 286 308 51 93 304 245 202 176 183 206 183 191 144 115 132 161 190 153 126 270 194 172 209 229 254 254 217 179 159 155 149 147 142 141
216 215 209 203 209 209 217 235 238 236 228 220 219 216 204 202 198 197 210 229 236 249 267 280 294 298 318 336 344 25 85 255 245 173 172 157 144 137 121 103 91 47 14 43 30 60 74 40 66 116 78 71 177 117 332 318 34 91 159 282 202 190 213 216 150 178 149 143 188 170 120 152 180 224 174 202 235 251 325 353 137 134 139 143 139 145 150 150
221 222 210 201 216 220 223 237 240 242 247 240 232 221 214 209 202 198 205 226 235 249 265 280 293 298 328 348 15 22 357 261 195 174 180 166 159 153 142 109 76 34 45 51 34 99 95 50 101 147 86 95 171 124 349 334 24 71 153 233 205 205 251 270 80 158 175 172 169 117 144 222 202 184 228 237 239 207 74 86 111 119 125 138 143 149 151 150
224 232 223 210 221 228 229 232 234 224 292 310 288 254 227 211 206 198 205 226 228 243 261 274 290 304 331 30 76 33 282 230 175 179 181 177 177 172 178 90 49 1 68 57 43 89 95 95 183 179 154 177 134 107 346 18 321 178 153 191 168 335 320 351 158 245 221 226 112 132 230 267 257 237 274 243 207 155 112 99 113 123 128 147 153 161 159 156
226 236 235 230 233 237 231 218 215 211 354 306 291 281 246 220 201 189 200 224 226 241 257 261 282 313 341 61 87 118 272 201 179 183 183 188 189 194 216 294 1 332 73 60 50 66 85 167 179 149 144 132 93 70 346 74 178 171 126 146 126 341 316 65 219 264 278 261 178 186 244 278 321 284 253 249 182 150 117 115 135 136 151 165 161 173 169 169
228 233 235 240 249 273 249 251 243 203 328 313 299 282 255 236 201 186 200 219 225 233 246 254 279 305 344 78 114 199 269 193 186 184 188 195 198 214 230 264 297 320 54 65 66 67 84 157 148 119 118 109 104 24 351 115 109 90 97 313 325 341 309 226 233 263 221 244 183 171 244 281 355 245 230 229 171 156 137 148 170 158 170 173 168 179 178 182
227 231 237 243 257 299 292 277 277 288 319 335 334 315 286 258 217 192 193 205 217 223 239 247 274 280 28 65 159 223 263 225 194 188 192 197 201 216 227 259 289 348 286 85 91 76 73 115 109 97 295 157 129 18 36 110 78 55 67 335 308 352 331 259 239 228 166 205 183 151 281 282 219 223 240 215 158 146 143 166 184 182 185 181 180 181 187 192
232 229 233 240 252 268 276 276 279 283 295 323 336 334 318 286 250 209 193 195 198 198 220 228 263 322 82 339 235 234 249 238 207 197 196 199 202 212 219 236 224 99 154 110 110 85 68 53 101 105 110 108 127 251 99 46 51 340 44 56 314 356 328 276 305 138 157 184 182 149 277 270 237 240 259 175 155 140 155 189 196 197 198 193 192 186 196 196
244 239 236 237 242 250 255 268 279 283 292 307 324 330 324 314 281 222 184 187 186 178 188 159 210 97 105 247 254 246 243 233 219 208 200 202 198 197 210 216 175 144 108 101 99 78 66 72 95 99 87 90 136 90 39 10 24 13 359 39 4 351 283 288 353 133 156 192 156 134 230 266 264 265 253 187 168 158 182 206 201 204 206 202 204 196 205 203
252 256 259 255 253 256 249 246 255 268 286 293 308 324 321 314 281 210 174 177 162 151 151 140 156 109 75 275 272 260 238 229 223 212 202 200 189 181 194 187 152 133 109 89 90 80 76 89 87 84 53 14 58 72 27 354 14 32 313 307 341 189 266 304 277 163 160 251 90 137 213 272 275 279 255 180 175 178 194 210 207 211 210 206 211 203 210 215
252 256 266 268 273 280 267 252 244 245 265 272 294 320 317 308 241 169 165 155 132 125 113 115 139 116 94 271 282 273 233 220 215 206 198 190 186 181 168 157 117 105 107 80 96 95 66 63 62 74 127 54 69 85 47 10 344 358 115 248 269 191 276 317 301 219 187 116 129 198 229 278 279 301 317 168 181 193 207 222 216 217 215 209 210 207 209 214
250 250 257 262 271 277 269 261 248 242 256 261 307 326 329 12 130 135 142 131 114 100 94 114 127 110 246 255 261 266 217 199 202 195 191 183 183 180 157 138 89 93 93 74 90 86 35 39 48 322 55 61 96 99 61 318 282 312 10 243 244 201 217 299 305 291 172 135 210 227 241 254 260 307 21 179 190 194 217 229 222 219 219 213 209 211 213 208
245 247 251 253 262 264 256 252 242 243 261 324 335 344 91 92 106 116 135 131 106 78 67 104 115 103 258 234 203 221 170 178 186 178 179 177 173 171 151 120 101 95 70 45 51 53 15 23 60 53 32 26 110 111 151 227 214 197 195 209 254 239 213 250 282 260 144 161 221 211 241 255 264 275 220 204 197 198 222 231 229 226 219 215 212 213 215 210
241 242 245 248 254 255 248 242 232 218 224 320 328 113 98 77 86 109 140 139 120 108 164 205 161 150 232 229 170 113 121 148 162 166 168 163 160 148 121 100 93 92 85 67 353 29 76 46 63 107 182 221 194 172 195 207 170 165 177 164 193 233 248 233 252 254 183 171 230 216 232 249 257 263 243 217 199 209 236 243 242 233 218 215 216 218 214 212
240 237 236 241 248 253 248 239 220 189 196 257 186 127 108 91 76 35 191 190 210 184 153 198 195 177 320 270 130 115 119 126 138 167 164 160 154 130 91 64 61 64 107 157 198 19 105 136 188 195 209 208 200 198 194 165 135 130 135 156 197 212 267 250 247 280 202 164 243 225 229 248 251 260 257 213 186 221 240 242 242 231 217 215 216 219 213 211
238 235 232 232 236 250 250 233 203 176 204 230 191 151 166 156 136 230 218 250 258 248 248 226 214 241 314 182 158 140 125 97 40 165 165 164 152 141 114 54 88 75 232 161 150 41 97 173 222 221 215 206 200 199 174 131 131 113 137 188 253 215 253 258 243 288 183 167 260 250 242 254 251 257 261 193 175 224 227 227 235 228 219 218 217 219 209 195
235 233 228 225 225 234 247 224 189 188 209 212 206 205 255 202 97 114 175 251 266 244 236 242 306 282 267 198 179 162 94 104 148 202 175 161 152 170 179 92 138 186 188 125 111 59 145 225 235 227 186 130 171 193 181 170 163 128 125 158 254 245 271 282 279 315 109 176 263 283 266 260 254 255 256 223 208 229 227 222 230 224 218 219 217 214 196 183
234 232 224 222 217 216 236 213 186 200 206 204 213 209 207 124 74 39 166 149 293 245 220 215 227 238 228 237 197 183 142 161 176 217 187 160 153 184 146 135 167 145 129 165 161 166 198 245 240 209 138 135 159 156 152 153 182 184 163 161 236 247 259 275 292 332 353 216 267 295 285 269 259 257 253 239 228 240 246 235 236 229 222 222 216 205 194 192
233 230 223 218 209 208 223 203 192 213 216 219 229 213 158 109 78 41 107 253 299 263 220 208 210 204 198 205 186 180 208 194 165 193 186 164 134 159 159 160 149 126 180 197 185 196 217 237 220 152 158 172 159 116 140 160 242 236 199 191 220 232 217 227 290 331 338 332 350 333 300 274 241 238 246 249 236 246 252 245 246 242 231 224 212 203 201 197
230 228 223 211 204 204 201 196 208 221 214 220 236 222 189 138 45 34 51 352 284 283 282 209 203 207 200 182 168 168 174 237 212 185 180 170 149 142 180 160 131 178 203 195 193 230 242 230 112 120 161 168 158 166 175 173 209 269 226 204 215 222 227 240 332 2 353 325 343 19 308 279 246 231 247 270 279 247 245 239 244 245 232 213 211 209 200 195
229 227 221 210 200 192 185 195 214 212 200 217 238 223 200 196 331 22 82 37 280 267 223 185 182 193 190 166 153 139 86 249 235 162 170 177 171 134 151 161 90 201 190 165 195 244 241 216 114 123 152 160 173 205 210 178 169 264 244 207 214 212 224 247 218 63 274 261 298 52 292 277 281 232 232 240 244 254 252 241 245 246 231 214 216 212 194 188
227 225 219 210 197 184 180 186 191 182 182 239 243 216 200 201 215 252 85 31 281 207 140 202 193 168 177 165 151 134 192 225 120 144 169 179 188 100 136 180 130 199 171 125 235 254 188 184 119 119 127 149 180 214 214 173 151 238 250 182 187 193 210 220 181 191 235 263 317 47 106 278 282 262 223 209 218 258 264 255 253 247 231 225 222 212 197 190
226 222 216 209 200 193 190 173 172 180 190 257 229 195 191 193 200 181 94 145 277 149 134 241 173 140 143 158 154 139 231 186 121 186 179 158 189 64 170 201 173 184 176 145 218 269 159 178 180 161 144 169 196 213 186 157 159 245 222 134 146 165 180 164 148 185 294 1 302 239 125 256 274 281 24 191 208 250 260 256 257 252 233 224 225 216 200 192
223 219 214 209 203 201 202 187 174 193 203 184 118 177 176 173 182 84 79 201 263 107 128 116 136 122 92 145 163 125 24 47 131 215 64 130 184 62 174 200 150 167 196 190 215 266 145 196 191 168 171 199 202 223 172 160 183 213 127 97 77 79 82 87 117 124 54 315 247 202 163 232 269 238 108 93 214 238 252 255 257 261 244 220 218 213 198 185
222 217 213 206 199 198 201 204 204 204 203 196 127 163 162 149 148 106 154 216 246 203 168 124 166 158 143 152 177 7 81 37 22 102 56 112 108 39 148 155 93 129 220 292 248 256 300 276 188 167 183 186 140 73 159 163 161 137 104 67 49 36 36 49 51 82 54 278 235 192 183 192 269 266 164 199 217 220 237 257 268 280 276 237 217 204 192 182
224 218 210 202 197 195 193 207 212 203 201 207 170 149 151 108 86 162 198 227 342 189 134 136 179 140 155 161 169 188 124 57 145 139 130 136 97 59 83 115 78 93 275 287 282 307 323 326 251 227 170 121 99 73 23 62 118 113 89 84 72 353 6 21 357 48 183 261 243 200 188 185 234 258 223 246 263 241 225 237 261 272 273 247 220 204 191 182
225 216 209 203 199 196 194 207 204 193 190 195 173 143 146 130 190 213 215 73 317 205 158 170 191 159 164 167 176 177 148 130 180 162 153 151 167 185 194 190 163 128 243 239 244 331 282 233 261 312 204 138 115 96 31 26 95 112 103 112 118 324 354 350 315 59 222 258 285 227 166 203 241 253 259 261 263 252 230 224 238 251 260 247 217 205 191 177
227 215 208 205 201 197 198 204 195 186 179 171 159 126 139 172 198 211 209 188 210 214 137 133 153 155 157 164 189 171 129 176 178 169 168 150 176 210 222 219 180 148 198 193 179 195 263 290 302 168 259 182 155 160 165 184 178 164 148 144 151 159 207 262 266 266 258 270 302 286 168 246 275 271 247 248 256 261 247 236 236 239 253 258 228 199 188 183
232 218 207 204 204 201 198 197 190 181 173 161 151 159 191 200 208 207 213 217 217 21 67 113 128 150 164 173 192 167 153 218 178 156 168 150 169 214 228 236 213 152 102 146 174 183 214 281 206 179 213 188 182 188 165 137 160 184 157 142 160 161 170 210 215 227 256 286 305 284 192 205 223 252 238 239 265 281 263 252 254 249 254 263 235 191 184 190
238 221 210 204 204 203 196 193 189 177 168 158 154 180 192 199 208 212 219 216 185 30 20 77 112 143 190 238 253 184 166 211 178 149 169 173 187 203 197 210 203 170 133 173 209 164 197 269 240 212 213 171 183 195 118 106 137 223 118 118 183 182 169 196 201 180 181 298 290 229 224 217 211 263 268 256 269 273 265 268 268 265 264 234 208 193 188 194
236 219 210 203 203 200 191 186 181 174 169 163 175 190 197 201 206 210 206 191 182 131 98 78 88 142 203 226 257 217 172 107 157 155 201 204 221 211 202 212 195 183 180 176 181 153 168 280 282 346 4 178 186 178 128 138 176 166 137 174 200 167 151 179 270 109 102 274 267 194 245 289 308 281 277 268 271 273 271 268 258 259 257 192 209 204 196 197
232 215 208 206 205 197 187 180 175 173 171 177 193 200 203 209 216 211 190 173 161 136 135 180 182 164 194 200 210 209 185 90 159 176 196 197 246 216 206 238 192 191 198 173 169 202 165 258 292 96 188 256 233 120 67 16 129 129 178 199 154 79 100 118 259 327 54 261 271 203 241 277 281 273 305 353 292 277 269 263 262 260 231 209 224 212 203 199
231 210 209 215 206 194 187 180 174 174 178 192 199 209 211 219 225 214 195 149 134 149 174 207 196 174 185 194 200 188 178 177 178 188 185 185 243 208 183 207 202 197 203 177 196 243 152 227 299 66 186 291 6 115 67 352 58 127 183 187 120 133 202 123 181 231 199 249 281 273 259 251 205 224 271 266 259 268 272 275 275 263 232 219 228 211 204 195
235 209 230 219 205 194 188 181 174 178 203 200 198 207 212 225 229 214 179 139 157 173 196 210 203 194 190 185 178 173 186 189 171 179 188 186 232 209 177 189 204 197 196 179 188 223 141 202 269 341 263 323 10 166 181 215 18 50 94 146 99 147 176 163 170 172 164 231 282 305 299 253 220 206 201 220 232 238 254 270 274 261 231 213 215 203 201 196
233 224 271 211 198 193 186 179 176 188 204 202 203 206 210 224 228 213 190 190 194 188 205 214 205 198 199 189 178 175 192 195 175 183 201 188 211 234 188 182 176 176 182 184 195 184 126 204 234 319 336 175 196 210 187 180 175 156 159 172 187 140 101 158 208 129 133 166 218 278 287 268 244 207 192 210 222 219 227 244 266 271 233 201 206 200 200 200
221 238 258 185 187 186 181 178 188 193 197 204 207 213 217 222 222 208 204 211 225 218 199 216 213 202 190 189 195 184 179 188 184 190 216 202 206 234 199 173 157 143 147 179 207 198 170 191 183 172 218 207 227 244 203 192 188 183 189 191 186 170 137 160 239 195 139 183 181 196 270 267 238 188 197 209 216 216 215 223 260 277 237 200 206 200 200 200
228 238 213 173 179 177 173 196 209 190 200 204 203 209 211 213 203 193 203 215 233 251 221 214 216 207 188 189 201 182 166 180 188 191 218 214 210 220 202 175 158 152 150 175 205 197 141 117 149 184 215 221 241 268 226 201 182 146 198 202 176 174 171 174 215 209 156 216 171 128 269 275 246 176 201 221 230 232 224 220 255 279 255 210 210 201 199 200
241 234 187 175 176 170 168 221 201 197 219 210 210 210 197 205 194 180 192 205 217 229 225 228 215 208 207 188 175 177 180 188 192 198 213 219 219 218 185 170 157 155 161 174 195 183 103 126 178 229 312 311 307 319 347 56 109 117 226 179 167 197 199 183 200 182 165 207 174 135 254 265 306 224 218 252 275 275 254 227 239 270 275 226 206 196 194 193
231 223 327 184 179 172 170 213 197 209 219 213 221 217 218 245 199 178 190 198 204 214 220 236 239 215 217 165 148 183 191 194 206 208 209 213 228 221 165 170 165 163 181 189 174 172 173 182 176 167 279 320 328 301 285 260 169 209 222 195 197 205 191 159 72 116 201 216 178 184 243 240 275 311 297 294 294 287 266 235 220 245 259 229 199 191 190 185
191 213 314 202 189 183 192 206 197 210 211 214 222 213 217 234 213 206 208 200 205 204 211 230 216 190 201 162 164 189 195 205 216 210 210 220 247 321 175 183 181 183 196 190 170 172 179 180 173 183 213 227 225 221 211 185 163 207 213 197 206 204 185 188 198 183 230 216 171 200 239 233 311 298 283 278 279 278 270 250 232 239 242 219 194 185 186 183
181 207 199 218 216 211 214 201 191 202 208 215 221 209 212 220 215 214 213 209 214 208 212 226 182 175 196 187 196 206 206 217 221 187 202 214 218 316 209 192 198 204 198 139 155 160 153 189 192 196 209 219 226 219 153 134 153 203 208 195 201 205 196 197 208 214 219 180 184 222 231 241 261 243 238 250 244 248 264 261 254 252 237 216 199 187 186 187
213 207 176 172 225 232 228 219 199 193 192 205 215 206 210 217 218 208 204 211 216 210 218 223 173 191 200 193 210 217 208 218 224 206 210 206 199 323 346 178 214 223 147 117 169 147 116 213 209 209 218 225 228 199 146 149 175 200 202 197 202 202 194 197 215 218 186 140 234 233 211 237 251 227 212 236 234 236 250 244 246 247 226 209 185 171 182 187
228 220 186 186 199 209 219 220 207 197 188 192 205 214 211 217 219 207 197 211 217 210 211 214 208 211 208 202 212 218 205 209 217 220 220 199 157 90 31 26 235 202 127 181 202 152 156 219 215 215 230 237 227 163 164 174 185 197 198 200 202 197 193 202 217 218 183 192 240 231 170 221 246 233 216 226 227 231 235 227 227 215 188 183 166 172 189 190
217 273 267 232 217 201 208 211 202 199 199 191 194 209 205 213 219 216 203 206 218 211 205 214 218 217 215 211 208 211 208 205 213 219 212 180 163 166 165 218 232 162 142 181 208 174 183 225 219 206 224 236 224 168 181 190 188 199 204 203 200 197 199 206 216 217 205 218 241 237 203 237 247 230 217 222 221 229 228 173 173 183 187 184 180 195 203 199
213 237 268 265 250 208 207 205 188 195 204 190 191 210 205 211 217 217 210 203 208 206 204 217 224 219 216 213 211 218 216 209 217 217 187 166 190 192 188 196 170 140 164 190 207 200 194 218 212 180 214 237 224 186 192 197 195 205 210 210 209 204 204 209 216 217 212 228 241 243 253 258 246 200 202 202 160 171 164 173 200 207 199 187 194 213 211 205
243 286 158 238 252 205 188 178 166 188 206 191 193 201 200 217 218 215 218 216 215 212 204 216 226 225 217 213 213 222 224 218 221 216 183 184 201 199 199 199 165 161 181 192 189 190 195 206 152 141 207 234 217 192 190 182 190 217 223 221 216 207 204 209 214 212 206 220 235 238 247 252 240 148 157 171 154 174 193 199 210 216 205 192 202 217 215 213
232 277 169 167 252 215 199 184 173 189 198 185 193 197 200 223 221 215 232 238 228 228 219 219 227 229 220 215 215 222 228 227 226 218 188 199 207 172 154 177 158 166 179 184 184 183 187 196 186 174 211 237 216 184 167 142 171 228 231 226 215 201 198 206 213 216 209 209 219 222 233 244 230 138 186 204 188 205 212 203 202 209 209 208 214 219 219 217
Height
812 813 812 813 813 813 813 813 814 814 814 815 815 815 816 816 816 817 817 817 818 817 818 818 818 818 817 817 817 816 816 815 814 814 813 813 813 813 813 813 814 813 813 813 812 812 812 812 812 811 810 812 815 817 816 817 819 820 829 835 839 848 844 838 842 842 837 833 833 834 834 834 835 835 834 835 837 840 842 843 844 842 842 842 841 840 840 840
812 812 812 813 813 813 813 813 813 814 814 814 815 815 816 816 816 817 817 817 818 818 818 818 818 818 817 817 817 816 815 814 813 813 812 813 813 813 813 813 814 814 813 813 813 812 813 814 813 812 812 815 818 817 817 819 819 825 835 837 838 842 837 833 835 836 835 831 831 834 835 835 834 834 835 835 839 842 840 841 845 844 842 842 841 841 840 840
811 812 812 812 812 812 812 813 813 814 814 814 815 815 816 816 816 817 817 818 817 818 818 817 818 817 817 817 816 817 815 814 814 814 812 812 812 812 813 813 814 814 814 813 813 813 813 814 813 814 816 818 820 819 819 820 821 828 833 834 836 836 833 834 834 833 832 830 831 833 835 835 834 834 834 835 839 842 839 838 841 841 841 842 842 841 841 841
811 811 811 811 811 812 812 813 813 813 814 814 815 815 815 816 816 817 817 817 817 818 817 818 818 817 818 816 817 817 814 816 816 813 812 812 812 813 813 814 814 814 814 814 814 813 813 814 813 815 817 820 823 821 822 822 823 829 831 831 833 834 833 832 832 831 832 832 831 832 835 835 833 834 834 835 838 840 836 833 833 833 836 840 841 841 841 841
810 810 810 810 811 811 812 812 813 813 814 814 814 814 815 815 816 816 816 816 816 817 817 818 817 817 818 816 817 815 816 822 819 812 813 813 813 814 814 814 814 814 815 814 814 814 813 813 814 817 820 822 824 823 824 825 825 828 831 832 832 834 833 830 832 833 833 833 832 833 834 832 833 834 833 835 835 833 830 829 830 829 832 836 839 840 841 841
810 810 810 810 810 811 811 812 813 813 813 814 814 814 815 815 815 815 816 816 816 817 817 817 817 817 817 816 817 815 819 825 817 812 814 814 814 814 814 815 815 815 815 814 814 814 814 815 816 820 823 824 827 826 825 827 826 828 832 833 833 834 831 829 831 832 832 831 831 832 831 831 833 832 833 833 829 828 829 830 830 830 832 835 837 839 840 841
810 810 810 810 810 811 811 812 812 812 813 813 813 814 814 814 815 815 815 816 816 816 816 817 817 817 817 816 817 816 820 819 813 813 815 814 815 815 815 815 815 815 815 815 814 815 817 817 819 823 825 826 829 828 827 827 826 827 831 832 832 833 831 829 830 831 831 829 830 832 831 832 832 832 835 832 827 829 832 831 831 831 833 835 837 839 840 841
810 810 809 810 810 811 811 812 812 812 812 813 813 813 814 814 814 815 815 815 815 816 816 816 817 817 817 817 817 819 820 816 812 814 814 815 815 815 816 816 815 816 815 815 815 815 817 819 822 824 826 828 828 828 828 828 827 827 830 831 832 832 830 831 831 831 831 830 832 833 831 832 832 834 835 828 826 831 833 832 832 833 834 836 837 839 840 841
810 810 809 810 810 810 811 811 812 812 812 813 813 813 813 813 814 814 815 815 815 816 816 816 817 816 817 817 818 822 819 813 813 813 814 815 815 816 816 816 816 816 815 816 816 815 817 821 823 823 825 828 827 828 829 829 830 829 830 831 831 831 830 831 831 830 832 832 833 832 832 833 834 836 832 825 828 833 834 834 834 835 836 837 838 839 839 840
809 810 810 810 810 810 811 811 812 812 813 813 813 813 813 813 813 814 814 815 815 815 816 816 816 817 817 816 820 823 816 811 813 813 814 815 815 816 816 816 816 816 816 816 816 816 818 820 821 820 822 826 827 830 831 830 831 830 830 831 831 832 832 831 830 830 833 833 833 832 832 833 835 838 829 824 830 834 833 835 836 836 836 838 839 839 839 839
809 809 810 810 810 810 811 811 811 812 812 812 813 812 812 813 813 814 814 814 815 815 816 816 816 817 817 817 822 822 813 812 813 813 815 815 815 816 816 816 816 816 816 816 817 817 818 818 819 820 823 826 827 830 831 830 831 831 831 830 831 832 831 831 831 831 833 832 832 832 832 834 837 836 826 824 831 833 832 835 837 836 837 839 839 840 840 840
808 809 810 810 810 811 811 811 811 812 812 812 812 812 812 812 812 813 813 814 814 815 816 816 817 817 817 819 821 817 813 813 813 813 814 814 815 816 816 817 816 817 816 817 818 817 818 818 818 822 825 826 829 832 831 830 832 832 833 833 832 832 830 830 830 831 833 832 830 832 835 835 834 829 822 826 832 833 834 834 837 837 838 839 839 840 840 839
806 807 809 810 810 810 811 811 811 812 812 812 812 812 812 812 812 813 813 814 814 815 816 816 817 817 818 820 816 813 813 813 813 813 814 814 815 816 816 817 817 817 817 817 818 818 819 818 819 822 825 826 830 832 830 831 833 833 836 838 837 837 833 830 833 833 833 833 829 833 838 830 824 822 823 831 833 832 834 834 836 837 837 839 839 839 839 839
805 806 807 808 809 810 810 811 812 812 812 812 812 812 812 812 813 813 813 814 814 815 816 817 818 817 819 818 813 812 813 813 813 813 814 814 815 816 817 817 817 818 817 817 818 819 819 819 819 821 825 828 829 830 832 836 836 837 840 843 847 846 835 830 835 835 831 834 831 833 841 829 817 820 824 831 832 831 832 833 835 836 837 838 838 839 838 838
804 805 806 807 808 809 810 810 811 812 812 812 812 812 812 812 812 812 813 814 814 816 816 817 817 818 821 817 811 812 812 812 813 813 814 815 815 816 817 817 818 818 818 818 819 819 820 819 821 824 828 829 829 832 838 840 840 843 843 845 854 851 838 830 834 834 829 832 833 833 840 832 819 820 825 831 833 831 829 831 835 835 836 837 837 838 838 838
803 805 806 806 807 808 809 810 810 811 812 812 812 812 812 812 812 813 813 814 815 816 816 818 818 819 822 817 811 812 811 811 812 812 814 814 815 816 817 818 818 818 819 819 819 820 820 821 826 830 830 831 834 836 841 845 845 849 848 846 849 850 845 836 831 834 831 831 834 834 835 829 819 822 829 833 833 832 830 831 833 833 834 836 836 837 837 837
803 804 805 806 807 808 808 809 810 811 812 812 812 812 812 812 812 813 814 815 816 816 817 818 817 819 819 814 812 811 809 810 811 812 813 814 816 816 817 818 819 819 819 820 820 821 821 824 831 833 833 838 839 838 845 852 848 849 853 850 848 849 849 840 830 833 834 832 833 834 835 827 817 821 831 833 834 834 831 829 830 832 833 834 835 836 836 836
803 803 805 806 806 807 808 809 810 811 811 812 812 812 812 812 813 814 814 815 816 818 819 818 819 823 818 810 810 809 807 809 810 812 813 814 816 817 817 818 819 820 821 823 823 824 826 829 834 834 838 842 840 840 846 847 840 841 848 848 847 847 848 845 835 832 833 833 834 836 837 829 820 821 826 831 834 833 829 827 828 829 831 832 834 834 834 834
802 803 804 805 806 807 808 809 810 810 811 812 812 813 813 813 814 814 815 815 815 816 817 814 814 818 813 806 807 807 807 809 810 811 813 814 816 817 818 818 820 821 824 828 827 827 829 832 837 839 841 841 838 838 836 834 833 835 840 841 840 840 842 842 836 832 832 834 835 835 834 828 822 820 820 827 833 832 829 828 827 827 828 830 831 831 831 831
801 802 803 804 805 806 807 808 809 811 812 812 812 813 813 814 815 816 816 815 811 808 808 807 806 807 806 805 806 807 808 809 810 812 813 814 815 817 818 820 822 824 827 830 830 831 832 836 840 838 835 833 834 833 830 833 836 836 839 840 841 842 840 835 833 832 833 835 832 830 831 827 822 818 817 822 830 831 829 827 824 823 824 826 826 826 826 828
799 801 802 803 805 806 807 808 809 811 812 812 813 813 812 811 812 814 814 812 807 805 805 805 805 805 804 806 806 805 808 810 811 811 813 814 814 817 820 822 825 829 832 833 833 833 835 839 838 831 827 828 831 834 834 837 837 837 840 841 844 847 841 833 832 832 834 836 830 827 831 829 824 820 817 821 826 823 821 821 818 818 819 820 819 820 822 826
798 799 801 803 804 805 806 807 809 810 811 812 812 813 812 810 810 810 811 810 805 802 804 806 807 806 805 805 805 805 807 811 813 812 812 813 814 817 821 824 826 830 834 835 834 837 841 840 832 827 830 831 833 836 837 838 839 840 843 845 846 846 841 833 833 836 835 835 830 828 831 826 822 820 816 818 818 811 810 811 809 809 812 813 813 815 820 824
797 798 800 801 802 805 806 807 809 810 810 811 811 812 811 810 810 810 810 811 806 801 802 804 805 805 805 805 804 805 806 808 811 811 811 812 814 818 820 824 827 831 835 833 831 838 841 834 826 827 832 832 834 839 840 841 842 842 844 846 845 844 842 833 832 837 836 835 833 832 832 825 820 819 814 811 809 807 807 805 803 803 804 805 807 810 814 817
795 797 799 799 802 804 804 807 808 809 809 810 810 810 810 810 810 810 809 810 807 800 797 797 799 800 800 800 800 803 806 805 805 807 808 810 815 819 818 821 828 833 833 829 828 831 828 825 826 829 830 830 834 840 841 841 842 842 843 844 841 839 839 834 834 836 834 836 837 835 830 818 811 813 808 803 806 807 803 801 801 801 800 802 804 806 809 811
793 796 797 799 801 802 804 807 806 807 808 809 809 807 810 810 810 811 810 812 810 801 796 795 795 794 792 796 798 800 804 803 800 801 803 806 810 815 818 820 825 830 831 830 832 831 825 824 827 829 832 833 833 837 838 837 840 840 838 837 834 832 834 837 839 839 837 838 840 841 834 815 804 810 807 802 806 804 799 799 797 795 798 801 801 801 805 809
791 794 795 798 800 801 805 804 803 806 807 808 806 806 810 809 811 812 810 819 815 800 796 795 791 787 785 793 796 799 807 803 796 798 801 803 804 807 816 819 820 824 828 831 834 830 825 824 824 825 832 834 833 836 835 835 840 842 835 831 832 834 836 838 840 841 842 841 843 844 841 826 806 801 802 799 801 796 792 796 794 792 795 797 797 797 802 807
789 791 793 796 798 799 801 800 802 804 805 806 803 806 809 807 812 810 812 830 817 788 788 793 788 783 781 787 789 797 807 800 795 800 799 802 803 803 811 818 820 822 824 829 831 826 821 823 827 827 829 834 836 835 832 833 839 839 834 831 832 835 837 838 839 841 843 844 846 843 844 841 815 798 799 795 795 793 787 789 789 789 792 793 795 796 798 803
785 788 791 794 795 796 797 798 800 800 802 802 800 805 807 807 813 808 818 835 807 775 780 787 784 780 782 787 786 791 798 792 794 801 799 801 804 804 809 814 815 816 818 822 824 822 818 820 824 824 827 833 832 826 826 831 833 833 837 837 835 836 837 839 838 843 848 849 848 843 844 846 820 799 803 800 797 794 786 784 782 781 787 790 793 794 796 800
782 785 787 791 794 795 796 797 798 798 800 800 800 803 805 809 810 808 825 827 789 769 777 780 782 784 786 790 790 791 794 793 796 799 800 802 803 804 809 812 813 815 817 816 816 818 819 820 820 820 823 824 823 824 826 826 827 833 840 838 838 841 841 843 841 841 850 850 845 842 843 843 817 793 800 805 800 793 783 782 780 778 783 786 789 792 794 799
779 781 784 789 792 793 795 795 796 797 799 801 802 803 805 809 809 818 834 814 777 774 781 779 783 786 787 792 796 795 794 797 799 799 803 804 803 806 808 809 812 815 818 817 817 820 821 823 822 819 819 819 821 830 833 828 828 834 835 832 836 840 839 845 845 843 850 845 835 833 834 838 823 799 798 799 793 786 779 778 777 776 780 782 786 790 792 797
777 779 782 785 786 789 791 792 793 796 799 801 803 804 807 810 812 821 822 794 772 779 783 783 787 787 787 789 794 796 795 799 801 799 803 806 807 809 809 812 814 819 824 821 821 823 821 821 821 818 820 819 820 829 835 835 835 831 828 829 836 842 843 848 849 850 853 841 829 831 833 837 826 803 795 792 785 785 783 779 774 772 775 779 785 789 791 795
774 775 778 781 782 785 786 785 789 795 799 800 804 805 806 814 818 812 799 781 775 776 775 781 786 786 789 788 789 793 794 798 800 799 801 806 809 808 806 807 809 819 825 823 823 825 820 818 819 818 820 819 817 825 835 837 836 831 829 834 842 849 852 852 854 858 855 840 835 840 839 835 817 793 790 788 781 780 782 781 777 774 774 776 783 789 791 794
771 772 775 776 778 779 780 783 788 793 797 799 804 807 808 815 811 796 784 774 771 771 770 775 781 783 787 788 790 792 792 795 798 799 799 802 807 806 802 801 802 807 811 817 825 826 821 819 820 818 816 813 811 818 827 830 833 831 828 832 841 852 861 860 860 859 850 838 839 845 840 829 808 788 782 778 771 773 777 779 779 778 777 777 781 788 790 793
769 770 771 772 773 774 777 783 786 790 794 797 803 807 809 809 796 783 777 767 765 772 773 774 780 785 784 784 787 787 790 795 797 798 799 803 808 808 804 803 803 802 806 817 823 823 820 814 811 810 808 807 805 806 809 817 827 829 823 826 831 839 847 848 847 844 839 836 840 846 837 817 798 784 779 777 775 777 778 779 782 782 783 784 785 788 790 792
766 767 769 770 771 772 775 779 783 788 792 795 800 803 802 797 787 778 771 764 767 774 776 777 781 787 787 786 787 784 784 791 796 798 801 801 802 801 799 797 799 800 804 811 815 819 820 808 800 805 804 802 803 802 804 813 825 830 827 826 827 825 824 828 838 842 842 841 839 839 825 803 790 780 776 779 776 774 775 777 778 777 780 785 785 786 789 790
764 764 766 766 766 768 772 776 781 786 788 792 796 794 788 780 771 767 760 757 764 771 778 783 783 788 790 788 790 788 783 787 795 799 800 800 797 794 791 786 789 793 791 796 806 813 816 808 806 809 806 805 806 803 805 808 815 827 830 825 823 823 818 823 840 847 847 842 828 821 812 798 791 780 772 775 772 769 771 770 770 772 777 781 781 784 788 788
761 762 762 761 762 765 769 773 777 781 785 789 789 782 775 767 757 756 753 751 758 764 771 778 778 782 787 788 789 789 786 788 794 796 797 801 793 785 787 783 782 785 780 783 793 797 799 802 808 811 806 809 813 807 807 809 810 821 826 818 819 826 822 825 837 841 845 843 823 812 808 800 797 785 772 772 769 763 762 763 767 770 774 778 779 783 787 787
759 760 758 755 757 762 767 771 773 776 778 780 781 776 770 761 751 749 749 750 755 759 762 767 769 772 778 782 784 785 784 785 792 794 793 797 786 771 777 781 778 780 777 778 786 789 792 796 807 817 811 811 814 808 809 814 813 814 814 812 816 823 826 831 836 835 839 840 823 812 809 801 794 784 770 767 765 758 755 757 760 763 768 775 778 783 785 786
757 758 752 746 751 758 763 767 770 774 773 771 775 774 764 754 747 746 749 750 752 756 756 756 758 764 769 772 775 781 781 777 785 790 785 788 780 763 765 770 771 777 778 779 784 787 791 792 802 817 818 813 812 809 811 815 816 816 815 815 816 817 820 825 828 826 830 833 823 813 804 789 780 774 764 760 759 756 754 752 750 755 764 771 776 781 783 784
755 755 745 739 747 753 758 764 766 768 766 762 765 763 754 747 743 745 747 747 746 748 749 747 750 757 763 765 767 771 775 773 778 781 775 775 773 763 762 762 766 776 778 780 782 783 790 792 797 814 822 815 808 804 803 804 807 812 814 817 819 819 822 822 821 822 822 826 828 822 800 774 767 768 759 752 752 751 753 752 749 754 762 768 772 777 779 781
753 751 741 736 743 749 756 760 757 756 756 756 755 752 747 742 741 745 746 744 743 742 743 743 745 748 755 761 762 762 768 772 775 775 770 768 764 757 756 756 760 771 780 785 784 781 786 791 795 810 818 809 801 799 800 797 796 799 802 804 805 810 817 821 822 821 818 817 819 822 802 765 754 762 757 751 750 749 756 759 752 753 760 765 768 773 775 777
750 745 738 736 739 745 753 752 746 746 747 746 742 740 738 737 739 744 744 745 746 743 743 743 741 743 747 752 755 757 762 766 771 771 765 760 755 749 749 751 754 761 770 778 777 772 778 787 792 803 807 803 800 803 807 805 798 798 799 797 798 802 804 807 812 813 816 815 811 822 810 766 748 758 757 754 754 756 765 767 756 754 760 763 765 770 774 775
746 741 737 736 735 738 746 745 741 742 740 734 733 733 734 734 737 740 742 745 746 743 743 742 739 740 740 743 749 755 757 758 762 762 756 754 750 745 746 750 753 758 762 767 771 771 777 783 788 796 801 801 801 802 806 807 803 801 801 798 798 797 793 795 798 801 809 809 808 822 811 767 751 762 761 760 764 764 768 768 760 756 759 763 765 769 772 774
741 739 738 737 734 733 737 737 736 739 738 734 734 736 735 734 735 737 737 738 739 739 741 740 737 737 737 739 744 748 750 751 754 753 750 750 748 746 747 748 750 754 755 756 760 766 774 779 783 793 799 800 802 803 803 805 805 800 797 796 793 790 794 798 799 803 804 795 797 809 793 760 754 762 760 761 764 759 757 762 762 756 754 760 766 768 772 774
738 738 737 736 733 730 727 726 729 735 737 736 736 736 736 734 732 733 733 733 733 735 737 735 734 735 736 738 741 744 744 740 741 746 748 747 748 749 750 749 748 747 746 746 747 752 762 768 772 782 789 787 785 783 781 788 799 798 791 792 792 791 795 794 796 804 798 785 789 791 771 756 757 758 755 757 758 752 748 753 757 755 756 761 764 767 770 771
735 736 736 736 732 727 723 722 725 730 734 737 736 734 734 734 729 728 732 733 732 732 731 730 731 734 736 738 739 741 741 736 735 741 746 744 744 749 752 751 749 747 746 748 748 751 758 760 758 759 760 754 749 751 757 768 785 788 783 785 788 788 790 790 794 795 786 785 788 770 755 758 757 753 754 752 751 748 744 744 747 749 755 760 762 765 768 769
730 726 727 730 730 726 724 723 724 728 732 735 734 729 728 730 728 728 731 731 729 729 729 729 731 733 733 734 735 735 736 738 738 739 742 741 743 751 757 755 752 751 752 751 750 754 760 758 753 749 743 735 733 744 753 759 767 772 773 779 782 783 788 791 787 776 773 785 778 753 754 763 752 746 751 748 747 747 743 741 741 742 750 758 761 764 767 769
727 720 716 718 720 720 721 720 721 726 729 732 733 730 728 729 728 728 729 728 727 728 730 730 730 727 724 724 727 730 733 738 740 737 736 739 745 752 757 756 754 755 755 754 752 754 755 752 748 748 746 738 737 748 753 752 755 759 763 768 772 778 784 783 775 765 767 774 758 742 755 758 739 738 745 743 742 741 738 740 742 745 751 756 760 762 764 767
726 723 718 715 714 714 713 712 716 723 727 731 734 733 731 730 728 725 724 726 728 726 727 728 723 720 719 718 721 726 728 731 735 732 730 736 743 747 748 748 750 755 756 754 753 755 753 747 744 747 748 743 743 751 753 751 754 756 757 759 762 768 771 768 764 761 763 761 747 745 757 748 730 732 737 736 737 738 739 743 745 746 749 752 756 758 760 764
724 722 720 717 715 714 713 712 715 720 724 730 732 731 730 729 726 722 719 721 725 724 722 722 716 713 716 718 719 720 718 717 720 721 724 732 738 741 740 736 739 752 758 753 752 755 752 746 744 748 751 747 745 752 756 755 753 753 755 756 756 759 761 761 759 759 764 761 749 753 760 742 723 726 732 735 737 738 741 743 743 745 748 750 753 755 757 761
721 719 718 719 717 714 714 714 715 717 721 726 728 727 728 727 722 719 716 713 714 716 717 715 712 712 715 718 718 716 710 707 708 710 715 720 723 726 727 724 726 740 751 749 747 749 750 749 748 751 752 745 741 748 758 759 758 758 756 752 748 750 754 756 755 754 758 758 755 763 759 732 718 727 732 734 736 737 738 740 742 744 748 750 748 748 753 755
721 719 719 721 719 713 712 714 715 714 713 716 719 720 723 723 720 721 720 714 710 711 712 710 710 712 715 716 713 707 702 702 705 709 712 714 715 718 723 724 722 728 737 740 740 741 743 744 745 747 747 740 736 745 756 762 763 759 744 728 729 741 747 749 749 746 746 748 751 753 737 716 719 731 731 732 736 736 735 737 739 742 747 750 748 746 748 751